[[{"header":{"parameterUnit":"m.s-1","parameterCategory":1,"la1":30.2991,"la2":30.254,"lo1":-89.0895,"lo2":-89.0444,"dy":0.0017,"dx":0.0017,"nx":28,"ny":28,"refTime":"2025-02-11T09:00:00:Z","depth":0,"parameterNumber":2,"parameterNumberName":"U-component_of_WINDS"},"data":[0,0,0,0,0,0,0,0,0,0,0,0,0,0,0,0,0,0,0,0,0,0,0,0,0,0,0,0,0,0,0,0,0,0,0,0,0,0,0,0,0,0,0,0,0,0,0,0,0,0,0,0,0,0,0,0,0,0,3.9073,3.9074,0,3.9118,3.9119,3.9119,3.912,3.9119,3.9119,3.9118,3.9168,3.917,3.9172,0,0,0,0,0,0,0,0,0,0,0,0,0,3.8993,3.8995,3.9073,3.9074,3.9074,3.9118,3.9119,3.9119,3.912,3.9119,3.9119,3.9118,3.9167,3.917,3.9172,0,0,0,0,0,0,0,0,0,0,0,0,0,3.9032,3.8995,3.9073,3.908,3.9081,3.9118,3.9119,3.9119,3.912,3.9119,3.9119,3.9118,3.9167,3.9169,3.9172,3.9207,0,0,3.9181,3.9182,0,0,0,0,0,0,0,0,3.903,3.9035,3.9078,3.908,3.9081,3.9112,3.9109,3.9149,3.912,3.9105,3.9118,3.9117,3.9151,3.9155,3.9165,3.9209,3.9211,3.9181,3.9183,3.9184,3.9185,0,0,0,0,0,0,0,3.9027,3.9033,3.9091,3.9079,3.9081,3.9082,3.9087,3.9116,3.9132,3.9107,3.9107,3.9112,3.9151,3.9162,3.9166,3.9212,3.9181,3.9183,3.9185,3.9186,3.9288,3.9289,0,0,0,0,0,0,3.9023,3.9031,3.909,3.9093,3.9053,3.9085,3.909,3.9103,3.9132,3.9136,3.9113,3.9112,3.9158,3.9163,3.9168,3.9211,3.9184,3.9186,3.9188,3.9287,3.9289,3.929,0,0,0,0,0,0,3.9021,3.9028,3.9088,3.9062,3.907,3.9087,3.9102,3.9105,3.9116,3.9136,3.914,3.9121,3.9158,3.9164,3.9197,3.9213,3.9188,3.919,3.9286,3.9288,3.9289,3.9297,0,0,0,0,0,0,3.9019,3.9027,3.9039,3.9062,3.9071,3.9115,3.9103,3.9106,3.912,3.9119,3.9145,3.9149,3.9157,3.9193,3.92,3.9216,3.9192,3.9285,3.9287,3.9289,3.9296,3.9299,3.9301,0,0,0,0,0,3.9016,3.904,3.904,3.9047,3.9086,3.9116,3.9121,3.9129,3.9121,3.9134,3.9148,3.9148,3.921,3.9196,3.9204,3.9222,3.9284,3.9286,3.9288,3.9294,3.9298,3.9301,0,0,0,0,0,0,3.902,3.9043,3.9043,3.9075,3.9093,3.9116,3.9132,3.9133,3.9155,3.9154,3.9165,3.917,3.9204,3.9216,3.92,3.9257,3.9246,3.925,3.9248,3.9252,3.9255,3.9251,3.9195,0,0,0,0,0,3.9024,3.9045,3.9065,3.9091,3.91,3.9115,3.9128,3.9133,3.9153,3.9161,3.9177,3.9197,3.9222,3.9237,3.9261,3.9298,3.9304,3.9314,3.9317,3.9319,3.9322,3.9344,3.9349,3.9297,3.9297,3.9297,0,0,3.9034,3.9049,3.9062,3.9092,3.9107,3.913,3.9121,3.9145,3.9163,3.9165,3.9197,3.921,3.9234,3.9269,3.9285,3.928,3.9338,3.9322,3.9324,3.9326,3.9347,3.9352,3.9356,3.9299,3.9299,3.9298,0,0,3.9063,3.9076,3.91,3.9115,3.9137,3.9147,3.9153,3.9175,3.9183,3.9216,3.9218,3.924,3.9281,3.9299,3.9313,3.935,3.9351,3.9358,3.9373,3.9395,3.9399,3.9402,3.9417,3.9422,3.9361,3.9361,3.9361,0,3.9072,3.9105,3.9113,3.9137,3.9151,3.9153,3.9179,3.9194,3.9223,3.9234,3.9227,3.928,3.9296,3.9336,3.9346,3.9357,3.9365,3.9355,3.9397,3.9401,3.9405,3.9419,3.9424,3.9362,3.9362,3.9362,3.9362,0,3.9116,3.9139,3.9156,3.9183,3.92,3.9225,3.9238,3.9254,3.9258,3.9269,3.9303,3.9323,3.9351,3.9361,3.9365,3.9402,3.9398,3.9395,3.9384,3.941,3.9423,3.9429,3.9363,3.9363,3.9362,3.9362,0,0,3.9148,3.9179,3.9186,3.9199,3.9224,3.9243,3.9269,3.9295,3.9309,3.933,3.9353,3.9389,3.9386,3.9402,3.9409,3.9428,3.9458,3.9422,3.9423,3.9428,3.9501,3.9504,3.951,3.9459,3.946,3.9461,3.9499,0,3.918,3.9224,3.9233,3.9272,3.9295,3.9298,3.9321,3.934,3.9352,3.9374,3.9387,3.9413,3.9406,3.9416,3.9435,3.945,3.9473,3.9447,3.9482,3.9483,3.9475,3.9516,3.9519,3.9554,3.9504,3.9505,3.9506,0,3.9223,3.9244,3.9285,3.9309,3.9319,3.9339,3.9365,3.9385,3.9408,3.9415,3.9434,3.9439,3.9468,3.9456,3.9497,3.948,3.9495,3.9505,3.9507,3.951,3.9496,3.9522,3.9566,3.9571,3.9514,3.9513,3.9513,0,3.9243,3.9282,3.9312,3.9323,3.9351,3.9365,3.9378,3.9399,3.9415,3.9439,3.9449,3.9476,3.9491,3.9513,3.9526,3.9515,3.9567,3.9555,3.9575,3.9574,3.9585,3.9584,3.9633,3.9594,3.9594,3.9594,3.9594,0,3.9278,3.9303,3.9321,3.9339,3.9369,3.9379,3.9409,3.9422,3.9441,3.9464,3.9469,3.949,3.9506,3.953,3.9541,3.9574,3.9581,3.9589,3.9591,3.9588,3.9587,3.9598,3.9596,3.9596,3.9595,3.9595,3.9595,0,3.9305,3.9317,3.935,3.9374,3.9381,3.9402,3.9423,3.9443,3.9455,3.9483,3.9491,3.951,3.9539,3.9554,3.959,3.9598,3.9635,3.9636,3.9627,3.9628,3.9647,3.9645,3.9704,3.9713,3.9669,3.9669,3.9669,0,3.9326,3.9346,3.9372,3.9387,3.9399,3.9423,3.9439,3.9452,3.9469,3.9497,3.9513,3.9542,3.9566,3.9612,3.963,3.9659,3.9661,3.968,3.9665,3.9662,3.9662,3.966,3.9663,3.9682,3.9683,3.9683,3.9683,0,3.9363,3.9369,3.9391,3.9416,3.9435,3.9456,3.9476,3.9489,3.9505,3.9524,3.9553,3.9571,3.9608,3.9638,3.9668,3.9683,3.9686,3.9688,3.9694,3.9691,3.9685,3.9689,3.9634,3.9686,3.9686,3.9686,3.9685,3.9685,3.9388,3.9406,3.9428,3.9453,3.947,3.9489,3.9508,3.9523,3.9547,3.9577,3.9583,3.9615,3.9639,3.9679,3.9695,3.9721,3.9717,3.9726,3.9728,3.973,3.9731,3.9681,3.9727,3.9727,3.9727,3.9727,3.9727,0,3.9426,3.944,3.9463,3.9492,3.9512,3.9513,3.9536,3.9553,3.958,3.9602,3.9625,3.9659,3.9688,3.9709,3.9739,3.9756,3.9758,3.9763,3.9762,3.9766,3.9733,3.9724,3.9761,3.9761,3.9761,3.9761,3.9761,3.9761,3.9448,3.9479,3.9487,3.9527,3.9542,3.9571,3.9584,3.9603,3.962,3.9658,3.9681,3.9695,3.9717,3.9749,3.9776,3.9782,3.9793,3.9797,3.9803,3.9772,3.9768,3.9765,3.9757,3.98,3.98,3.9835,3.9835,3.9835]},{"header":{"parameterUnit":"m.s-1","parameterCategory":1,"la1":30.2991,"la2":30.254,"lo1":-89.0895,"lo2":-89.0444,"dy":0.0017,"dx":0.0017,"nx":28,"ny":28,"refTime":"2025-02-11T09:00:00:Z","depth":0,"parameterNumber":3,"parameterNumberName":"V-component_of_WINDS"},"data":[0,0,0,0,0,0,0,0,0,0,0,0,0,0,0,0,0,0,0,0,0,0,0,0,0,0,0,0,0,0,0,0,0,0,0,0,0,0,0,0,0,0,0,0,0,0,0,0,0,0,0,0,0,0,0,0,0,0,3.6509,3.6513,0,3.6897,3.6901,3.6906,3.6949,3.6945,3.6941,3.6937,3.734,3.7354,3.7368,0,0,0,0,0,0,0,0,0,0,0,0,0,3.5805,3.5817,3.6509,3.6514,3.6518,3.6896,3.6901,3.6907,3.6949,3.6944,3.694,3.6935,3.7335,3.7352,3.7369,0,0,0,0,0,0,0,0,0,0,0,0,0,3.6143,3.5822,3.6508,3.6585,3.6596,3.6895,3.6902,3.6908,3.695,3.6944,3.6938,3.6933,3.733,3.735,3.7372,3.7623,0,0,3.7438,3.7447,0,0,0,0,0,0,0,0,3.6124,3.6169,3.6569,3.658,3.6593,3.6868,3.6801,3.7148,3.6952,3.6816,3.6937,3.693,3.7188,3.7221,3.7307,3.7641,3.7659,3.744,3.7453,3.7462,3.7468,0,0,0,0,0,0,0,3.6101,3.6153,3.6662,3.6575,3.6589,3.66,3.6642,3.6867,3.703,3.6827,3.6831,3.6876,3.7194,3.7286,3.7316,3.7665,3.7439,3.7458,3.7471,3.748,3.8219,3.8226,0,0,0,0,0,0,3.6062,3.6133,3.665,3.6674,3.6339,3.6617,3.6664,3.6786,3.7028,3.7059,3.6881,3.6877,3.7252,3.7291,3.7331,3.7639,3.7462,3.7482,3.7494,3.8213,3.8221,3.8228,0,0,0,0,0,0,3.6047,3.6108,3.6635,3.6405,3.6472,3.6636,3.6772,3.6797,3.6889,3.7068,3.7098,3.6945,3.7249,3.73,3.7548,3.7653,3.7492,3.7511,3.8205,3.8215,3.8224,3.8257,0,0,0,0,0,0,3.6027,3.6102,3.62,3.6407,3.6485,3.6846,3.6779,3.6808,3.6925,3.6924,3.7137,3.7166,3.7248,3.7516,3.7569,3.768,3.7528,3.8196,3.8209,3.8221,3.8247,3.8267,3.8283,0,0,0,0,0,3.6002,3.6196,3.6205,3.6267,3.661,3.6852,3.6897,3.6985,3.6934,3.7033,3.7147,3.716,3.7631,3.7541,3.7602,3.772,3.819,3.8206,3.822,3.8239,3.8263,3.8283,0,0,0,0,0,0,3.6002,3.6225,3.6237,3.6504,3.6658,3.6858,3.6987,3.7008,3.7182,3.7173,3.7276,3.7324,3.7567,3.7668,3.7563,3.7973,3.7906,3.7934,3.7899,3.7923,3.7941,3.7913,3.7546,0,0,0,0,0,3.6032,3.6209,3.6395,3.6612,3.6688,3.6823,3.6933,3.6986,3.7151,3.7217,3.735,3.751,3.7693,3.7814,3.7993,3.8259,3.8306,3.8371,3.8388,3.8402,3.8427,3.8572,3.8603,3.8277,3.8277,3.8277,0,0,3.6099,3.6242,3.6349,3.6616,3.6742,3.6922,3.6879,3.7073,3.7208,3.7248,3.7489,3.759,3.7776,3.8033,3.8153,3.8125,3.8526,3.8422,3.8431,3.8449,3.8591,3.8622,3.8649,3.8288,3.8286,3.8284,0,0,3.6312,3.6439,3.6633,3.6757,3.6946,3.7034,3.7079,3.7275,3.7344,3.7586,3.7618,3.7779,3.8095,3.8224,3.8331,3.8584,3.8602,3.8639,3.8736,3.8877,3.8902,3.8926,3.9016,3.9047,3.8662,3.8662,3.8662,0,3.6372,3.6646,3.673,3.6922,3.7038,3.7076,3.7272,3.7389,3.7628,3.7707,3.767,3.8063,3.819,3.8477,3.8537,3.8623,3.8678,3.8619,3.8891,3.8916,3.8939,3.9026,3.9059,3.8665,3.8665,3.8665,3.8664,0,3.6708,3.6897,3.703,3.7256,3.7386,3.7579,3.7692,3.7813,3.7853,3.7943,3.8187,3.834,3.8549,3.862,3.8663,3.8912,3.8888,3.887,3.8806,3.8972,3.9055,3.9089,3.867,3.8669,3.8668,3.8667,0,0,3.6942,3.7205,3.7253,3.7353,3.7561,3.7708,3.79,3.8102,3.8203,3.8364,3.8528,3.8789,3.8772,3.8893,3.895,3.9073,3.9261,3.9039,3.9045,3.9076,3.9543,3.9558,3.9595,3.9271,3.9278,3.9284,3.9528,0,3.7179,3.7524,3.7601,3.7897,3.807,3.8105,3.8272,3.8416,3.8504,3.8664,3.876,3.8944,3.8907,3.898,3.9103,3.9212,3.9357,3.9195,3.9427,3.9434,3.9383,3.9639,3.9657,3.9881,3.9561,3.9567,3.9571,0,3.7506,3.767,3.7982,3.8161,3.8237,3.8386,3.8574,3.8726,3.8889,3.8943,3.9074,3.9116,3.9316,3.9236,3.9513,3.9401,3.9499,3.9566,3.9577,3.9606,3.9516,3.9676,3.9954,3.9988,3.9623,3.9619,3.9615,0,3.7644,3.7943,3.8168,3.8252,3.8467,3.8571,3.8665,3.8822,3.8936,3.9099,3.9174,3.9359,3.9462,3.9604,3.9694,3.9628,3.9963,3.9892,4.0016,4.0013,4.0089,4.0084,4.0389,4.0147,4.0146,4.0146,4.0145,0,3.7905,3.8094,3.8232,3.8371,3.8583,3.8668,3.8876,3.897,3.9107,3.9264,3.9304,3.945,3.9559,3.972,3.9791,4.0009,4.0054,4.0104,4.0122,4.0103,4.0097,4.0172,4.016,4.0155,4.0153,4.0151,4.0149,0,3.8099,3.8198,3.8445,3.8625,3.8674,3.8823,3.8977,3.9112,3.9196,3.9394,3.9445,3.9579,3.977,3.9871,4.0111,4.0159,4.0403,4.0411,4.0348,4.0356,4.0474,4.0462,4.0841,4.0895,4.0614,4.0616,4.0618,0,3.826,3.8406,3.8599,3.8706,3.8801,3.8973,3.9087,3.9174,3.9293,3.9485,3.9596,3.9787,3.9947,4.0249,4.0368,4.0551,4.0565,4.0684,4.0593,4.0568,4.0568,4.056,4.0574,4.0702,4.0705,4.0707,4.0708,0,3.8535,3.8575,3.8739,3.8919,3.9053,3.92,3.9345,3.9429,3.9539,3.967,3.9863,3.9985,4.0226,4.0417,4.0606,4.0703,4.0726,4.0734,4.0773,4.0758,4.0716,4.0741,4.0394,4.0728,4.0726,4.0724,4.0723,4.0722,3.872,3.8849,3.9004,3.9184,3.93,3.9432,3.9567,3.9665,3.9828,4.003,4.007,4.0274,4.0428,4.0685,4.0786,4.0947,4.0924,4.0979,4.0994,4.1007,4.1013,4.0686,4.0982,4.0981,4.0981,4.0981,4.098,0,3.8998,3.9097,3.9261,3.946,3.96,3.9601,3.976,3.9878,4.0056,4.0196,4.0349,4.057,4.0752,4.0882,4.1067,4.1171,4.1185,4.1217,4.1213,4.1234,4.1023,4.0972,4.1202,4.1202,4.1202,4.1202,4.1202,4.1202,3.916,3.9379,3.9436,3.9712,3.981,4.0009,4.0098,4.022,4.0332,4.0575,4.0726,4.0807,4.0944,4.1138,4.1304,4.1338,4.1405,4.1437,4.1471,4.1273,4.1249,4.1227,4.118,4.145,4.145,4.167,4.1672,4.1673]}]]